This is the latest recevied weather packets stored in our database for station/object KF0WJA. If no packets are shown the sender has not sent any weather packets the latest 10 day(s).
| Time | Temp. | Humidity | Pressure | Rain* | Wind** | Luminosity | Snow |
|---|---|---|---|---|---|---|---|
| 1788224828 | 31.67° C | 43% | 1015.7 hPa | 0 mm | - | 0 W/m² | - |
| 1788224523 | 32.22° C | 42% | 1015.7 hPa | 0 mm | - | 0 W/m² | - |
| 1788224222 | 32.78° C | 42% | 1015.6 hPa | 0 mm | - | 2 W/m² | - |
| 1788223918 | 32.78° C | 41% | 1015.5 hPa | 0 mm | - | 6 W/m² | - |
| 1788223617 | 33.33° C | 39% | 1015.7 hPa | 0 mm | - | 10 W/m² | - |
| 1788223312 | 33.89° C | 39% | 1015.5 hPa | 0 mm | - | 14 W/m² | - |
| 1788223012 | 33.89° C | 38% | 1015.6 hPa | 0 mm | - | 18 W/m² | - |
| 1788222706 | 33.89° C | 38% | 1015.7 hPa | 0 mm | - | 24 W/m² | - |
| 1788222405 | 34.44° C | 37% | 1015.4 hPa | 0 mm | - | 30 W/m² | - |
| 1788222100 | 35° C | 37% | 1015.7 hPa | 0 mm | - | 39 W/m² | - |
| 1788221796 | 35° C | 36% | 1015.5 hPa | 0 mm | - | 47 W/m² | - |
| 1788221490 | 35.56° C | 35% | 1015.7 hPa | 0 mm | - | 57 W/m² | - |
| 1788221186 | 35.56° C | 34% | 1015.5 hPa | 0 mm | - | 71 W/m² | - |
| 1788220881 | 35.56° C | 33% | 1015.6 hPa | 0 mm | - | 82 W/m² | - |
| 1788220575 | 36.11° C | 33% | 1015.7 hPa | 0 mm | - | 90 W/m² | - |
| 1788220271 | 36.11° C | 33% | 1015.5 hPa | 0 mm | - | 107 W/m² | - |
| 1788219970 | 36.11° C | 33% | 1015.8 hPa | 0 mm | - | 133 W/m² | - |
| 1788219666 | 36.67° C | 32% | 1015.7 hPa | 0 mm | - | 144 W/m² | - |
| 1788219361 | 36.67° C | 33% | 1015.6 hPa | 0 mm | - | 151 W/m² | - |
| 1788219056 | 36.67° C | 33% | 1015.5 hPa | 0 mm | - | 176 W/m² | - |
| 1788218755 | 36.67° C | 33% | 1015.5 hPa | 0 mm | - | 183 W/m² | - |
| 1788218447 | 37.22° C | 32% | 1015.3 hPa | 0 mm | - | 190 W/m² | - |
| 1788218144 | 37.22° C | 32% | 1015.6 hPa | 0 mm | - | 225 W/m² | - |
| 1788217839 | 37.22° C | 32% | 1015.5 hPa | 0 mm | - | 234 W/m² | - |
| 1788217534 | 37.22° C | 32% | 1015.5 hPa | 0 mm | - | 254 W/m² | - |
* Rain latest hour (hover to see other rain measurements)
** Current wind speed in m/s (hover to see current wind gust speed)